Location: Campo Reale
(41.1667°N, 15.1167°E)
Time: 03:59:51
(UTC+00:00)

Daily predictions for brighter satellites

Satellite Brightness Start Highest point End
(mag) Time Altitude Azimuth Time Altitude Azimuth Time Altitude Azimuth
ATLAS 5 CENTAUR R/B 4.4 02:59:51 12° ENE 02:59:51 12° ENE 03:00:21 10° ENE
CENTAUR R/B 4.3 03:11:58 21° N 03:11:58 21° N 03:14:55 10° NNE
DELTA 2 R/B (1) 4.2 03:19:03 51° ESE 03:19:03 51° ESE 03:23:13 10° E
DNEPR-1 R/B 4.4 03:30:25 60° SSE 03:30:25 60° SSE 03:35:20 10° SSE
MOS 1-B Rocket 4.5 03:23:33 10° SSE 03:29:27 54° ENE 03:32:38 25° N
Cosmos 1328 Rocket 4.4 03:38:55 45° SE 03:38:55 45° SE 03:42:11 10° SSE
Cosmos 1833 4.1 03:40:57 77° N 03:41:23 86° ENE 03:47:08 10° SSE
ATLAS 3B R/B 3.3 03:35:32 10° S 03:41:45 51° ESE 03:48:15 10° NE
Meteor 2-6 Rocket 4.1 03:41:55 56° N 03:43:03 77° E 03:48:28 10° SSE
Cosmos 2369 Rocket 4.0 03:51:56 17° N 03:51:56 17° N 03:53:26 10° N
Cosmos 1777 Rocket 4.4 03:48:32 10° S 03:53:39 62° ESE 03:58:50 10° NNE
Cosmos 773 Rocket 4.3 03:51:56 34° N 03:54:05 62° ENE 03:59:10 10° SSE
CZ-2C R/B 3.1 03:50:08 10° SSE 03:55:28 59° ENE 04:00:26 12° N
COSMO-SKYMED 1 3.2 03:53:34 10° SSE 03:57:47 54° ENE 03:59:58 26° N
SL-8 R/B 3.7 03:58:05 64° SSW 03:58:05 64° SSW 04:02:35 10° SE
H-2A R/B 4.5 04:04:21 22° S 04:04:21 22° S 04:05:48 10° S
SL-27 R/B 3.1 04:02:53 54° ESE 04:02:53 54° ESE 04:05:50 10° SSE
Cosmos 1408 Rocket 3.7 03:58:33 10° S 04:02:49 71° E 04:07:08 10° NNE
Lacrosse 5 4.5 04:03:25 10° SSE 04:07:02 20° ESE 04:10:42 10° ENE
SJ-12 3.8 04:02:57 10° NNE 04:07:06 88° E 04:11:14 10° SSW
Meteor 2-15 4.4 04:04:02 10° N 04:10:08 84° E 04:16:11 10° S
Cosmos 2279 Rocket 3.9 04:06:26 17° NNW 04:11:12 65° W 04:17:18 10° S
BREEZE-M DEB (TANK) 3.9 03:56:00 10° SW 04:13:41 87° SSE 04:17:51 10° ENE
Envisat 2.8 04:08:37 10° N 04:13:43 83° WNW 04:18:48 10° SSW
Cosmos 1743 Rocket 4.4 04:10:52 10° SSE 04:15:04 50° E 04:19:17 10° NNE
USA 215 4.2 04:10:28 10° E 04:16:27 40° NNE 04:20:33 19° NNW
Meteor 1-31 Rocket 2.8 04:12:40 10° NNE 04:16:36 81° E 04:20:31 10° S
SJ 16-02 1.2 04:12:39 10° SSW 04:17:02 85° WNW 04:21:26 10° NNE
Nadezhda 4 Rocket 4.1 04:11:48 10° S 04:17:56 78° E 04:24:13 10° N
SKYMED 3 4.4 04:17:32 10° S 04:21:52 82° WSW 04:24:22 25° NNW
Meteor 1-10 Rocket 4.1 04:17:47 18° NNW 04:21:58 67° W 04:27:28 10° S
Cosmos 2227 Rocket 4.5 04:19:38 10° N 04:23:29 18° NE 04:27:17 10° E
Meteor 2-19 Rocket 4.3 04:17:41 10° S 04:23:44 84° W 04:29:49 10° N
Cosmos 1515 Rocket 3.4 04:22:56 23° NNW 04:25:34 79° W 04:29:52 10° S
SL-4 R/B 2.0 04:24:19 34° SSW 04:25:34 59° SE 04:29:10 10° ENE
Meteor 2-8 Rocket 4.5 04:26:02 10° NNW 04:32:00 55° W 04:37:53 10° SSW
Cosmos 2228 Rocket 4.2 04:30:18 10° N 04:34:40 45° ENE 04:39:01 10° SSE
Cosmos 1092 Rocket 4.4 04:32:41 10° S 04:38:53 67° E 04:45:10 10° NNE
Sich 1 4.2 04:36:28 10° SSE 04:40:32 44° E 04:44:36 10° NNE
Meteor 1-20 Rocket 4.5 04:35:24 10° S 04:40:57 72° E 04:46:39 10° NNE
ATLAS 5 CENTAUR R/B 1.9 04:41:25 33° NW 04:41:38 33° NW 04:45:31 10° NNE
Cosmos 1500 Rocket 3.5 04:37:11 10° SSW 04:41:38 76° W 04:46:08 10° N
Cosmos 1602 4.2 04:37:58 10° S 04:41:43 62° E 04:45:29 10° NNE
NOAA 11 4.3 04:36:40 10° NNE 04:42:11 81° ESE 04:47:41 10° S
Meteor PRIRODA 4.2 04:41:26 10° NNE 04:45:02 60° E 04:48:37 10° S
SKYMED 2 3.9 04:41:44 10° S 04:45:51 43° W 04:48:34 20° NW
Cosmos 1500 4.3 04:45:52 10° SSE 04:49:31 47° E 04:53:10 10° NNE
COSMOS 2487 2.2 04:47:50 21° NNW 04:49:59 85° WSW 04:53:19 10° SSE
H-2A R/B 3.1 04:49:22 10° SE 04:53:29 46° ENE 04:57:42 10° N
Cosmos 1805 Rocket 3.5 04:49:58 10° S 04:54:21 85° E 04:58:43 10° N
CENTAUR R/B 4.5 04:59:09 11° NW 05:02:06 13° N 05:05:36 10° NNE
Cosmos 1515 3.6 04:59:49 10° NNW 05:03:37 69° W 05:07:23 10° S
DELTA 2 R/B (1) 3.8 04:59:49 17° W 05:03:59 63° SSW 05:09:28 10° ESE
CZ-4C R/B 3.2 05:01:48 10° S 05:04:44 38° W 05:06:54 16° NW
CZ-3 R/B 3.7 05:03:13 10° SW 05:12:29 24° S 05:16:48 10° SE
BREEZE-M DEB (TANK) 3.9 05:06:52 13° WNW 05:16:37 65° SW 05:20:05 10° SE
Cosmos 1666 3.4 05:14:27 10° S 05:18:09 56° E 05:21:51 10° NNE
Cosmos 1809 Rocket 4.4 05:15:46 10° SSW 05:21:51 65° W 05:27:59 10° N
Cosmos 1538 Rocket 4.3 05:17:45 10° NNW 05:22:43 46° WSW 05:27:37 10° S
Cosmos 2026 Rocket 4.0 05:16:50 10° SSW 05:23:07 68° W 05:29:23 10° N
NOAA 12 4.0 05:18:42 10° N 05:23:56 69° WNW 05:29:07 10° SSW
Alouette 2 Rocket 3.8 05:20:51 10° NNW 05:24:10 36° W 05:27:45 10° SSW
Meteor 1-27 Rocket 4.5 05:19:30 10° NNW 05:24:29 32° W 05:29:33 10° SSW
Okean O Rocket 4.4 05:23:52 10° NE 05:27:20 22° E 05:30:45 10° SE
ADEOS 4.1 05:23:17 10° N 05:28:01 36° WNW 05:32:44 10° SW
Cosmos 2297 Rocket 2.4 05:26:06 10° NNW 05:31:48 80° ENE 05:37:27 10° SSE
ATLAS 3B R/B 3.2 05:26:44 10° WSW 05:32:40 35° NW 05:38:53 10° NNE
Cosmos 1607 4.0 05:27:36 10° NW 05:33:46 64° WSW 05:39:48 10° SSE
Cosmos 1633 Rocket 3.2 05:29:44 10° S 05:34:03 80° E 05:38:24 10° N
COSMO-SKYMED 1 4.4 05:32:10 10° WSW 05:34:16 13° W 05:36:21 10° WNW
Cosmos 1340 Rocket 4.3 05:31:43 10° WSW 05:34:23 17° WNW 05:37:04 10° NNW
Timation 1 Rocket 4.4 05:29:42 10° NNW 05:35:43 87° ENE 05:41:41 10° SSE
CZ-4B R/B 1.6 05:32:42 10° SSE 05:35:58 70° ENE 05:39:12 10° N
CZ-2C R/B 4.1 05:32:32 10° SW 05:36:06 18° W 05:39:37 10° NW
Cosmos 1553 Rocket 4.0 05:34:30 10° N 05:40:37 87° E 05:46:45 10° S
Cosmos 1680 Rocket 3.6 05:36:55 10° NNW 05:42:15 84° ENE 05:47:29 10° SSE
NOSS 3-1 (C) 4.2 05:37:38 10° SSW 05:42:34 52° ESE 05:48:15 10° NE
CZ-4B R/B 3.6 05:41:27 10° NNW 05:44:28 26° WNW 05:47:30 10° SW
Cosmos 1378 4.1 05:41:07 10° N 05:44:45 50° E 05:48:22 10° SSE
